Location: Zilina
(0.0000°N, 18.7333°E)
Time: 14:16:42
(UTC+02:00)

GPS 2-14 Rocket1 - Pass Details

Date: 19 February 2019
Orbit: 477 x 543 km, 20.7° (Epoch: 15 October)

Event Time Altitude Azimuth Distance (km) Brightness Sun altitude
Rises 19:22:47 0° 295° (WNW) 2,637 7.2 -20.6°
Reaches altitude 10° 19:25:04 10° 296° (WNW) 1,739 6.1 -21.1°
Enters shadow 19:28:57 74° 356° (N) 530 2.6 -22.1°
